Location: Godiavel Galaoual
(15.2485°N, 12.6604°W)
Time: 21:03:12
(UTC+00:00)

BEESAT - Pass Details

Date: 27 July 2021
Orbit: 699 x 708 km, 98.6° (Epoch: 25 September)

Event Time Altitude Azimuth Distance (km) Brightness Sun altitude
Rises 21:01:33 0° 344° (NNW) 3,095 ? -22.7°
Reaches altitude 10° 21:04:44 10° 321° (NW) 2,176 ? -23.3°
Maximum altitude 21:07:20 15° 287° (WNW) 1,871 ? -23.9°
Drops below altitude 10° 21:09:56 10° 254° (WSW) 2,174 ? -24.4°
Sets 21:13:08 0° 231° (SW) 3,091 ? -25.1°
